Location: Bergnershof
(48.9468°N, 10.9431°E)
Time: 00:01:52
(UTC+00:00)

YAOGAN 1 - Pass Details

Date: 03 March 2021
Orbit: 618 x 620 km, 97.9° (Epoch: 12 April)

Event Time Altitude Azimuth Distance (km) Brightness Sun altitude
Rises 17:37:43 0° 157° (SSE) 2,886 5.8 -6.5°
Reaches altitude 10° 17:39:54 10° 155° (SSE) 1,985 4.9 -6.9°
Maximum altitude 17:44:11 68° 73° (ENE) 675 2.5 -7.6°
Drops below altitude 10° 17:48:30 10° 351° (N) 2,000 5.3 -8.3°
Sets 17:50:43 0° 349° (N) 2,911 6.2 -8.6°
